Terug naar catalogus

SL-12 R/B

AUX MOTOR

ActiefHEO
NORAD 32398·ROCKET BODY·🇷🇺 Russia

Gelanceerd Dec 25, 2007 vanaf Baikonur Cosmodrome

Loading…

Volgende Passages (komende 24 uur)

TLE

VersSource: Space-Track

Epoch: Sep 8, 2026, 19:45 UTC

1 32398U 07065F   26251.82335191  .00000015  00000-0 -32510-4 0  9993
2 32398  65.3448 101.9428 5614335 259.4931  35.9346  4.24950518 67924

Volg SL-12 R/B in realtime met AllMySat

Download on the App Store